Find DMSP 5528

NORAD ID: 5903 Int'l Des: 1972-018 Owner: SAMSO Country: US operational
LEOCIRCULARRETROGRADE

Current View

Loading 3D Globe...

About DMSP 5528

Description loading...

Upcoming Passes

Passes for default location (London). Set your location on the main map for personalized predictions.

Altitude History

Loading altitude history...

Two-Line Element Set

1 5903U 72018A 26151.49701203 .00000246 00000-0 12260-3 0 9992
2 5903 99.1220 344.6123 0051138 141.1966 219.2902 14.25497930887834
Epoch: May 31, 2026 • Age: 10 hours

Current Status

Altitude 831.4 km
Velocity 7.43 km/s
Sub-Earth Point 11.90°N, 122.33°E
Type other

Most Searched